Погода в Силистре

Болгария     44°07′03″N   27°16′23″E
темп.,
°C
ветер,
м/с
пор.,
м/с
влажн.,
%
обл.,
%
осадки,
мм/ч
давл.,
гПа
погр.,
м
14 апреля, ср
ср1400:00+10ююв51069100 0.0 1014307
03:00+8юв3790100 0.5 1013251
06:00+9ююв3596100 3.1 1011324
09:00+10зюз4894100 4.2 1011497
12:00+11з9118796 0.7 1012811
15:00+7з81387100 2.0 1014621
18:00+10з7117299 0.2 10131165
21:00+6з7127732 0.2 1014675
15 апреля, чт
чт1500:00+5зюз9148399 0.0 1015627
03:00+4зюз81380100 0.0 1016644
06:00+3зюз814816 0.0 1017576
09:00+6з912715 0.0 1018759
12:00+9з896199 0.0 10171243
15:00+10з7957100 0.0 10171648
18:00+10з586072 0.0 10171342
21:00+6зюз411727 0.0 1018219
16 апреля, пт
пт1600:00+5зюз513711 0.0 1018304
03:00+4зюз512750 0.0 1018333
06:00+3з613795 0.0 1018430
09:00+6з7107149 0.0 1019548
12:00+10з78545 0.0 10191219
15:00+13з79465 0.0 10191831
18:00+12з575013 0.0 10181703
21:00+7юз466693 0.0 102074
17 апреля, сб
сб1700:00+6юз346694 0.0 102062
03:00+5зюз1164100 0.0 101910
06:00+5ююз2263100 0.0 102014
09:00+9ююв2357100 0.0 1020241
12:00+14юв4554100 0.0 10191440
15:00+14ююв6652100 0.0 10171578
18:00+7ююв71087100 1.2 1018394
21:00+7вюв51187100 2.5 1018494
18 апреля, вс
вс1800:00+6в41087100 0.1 1017430
03:00+7всв41088100 0.1 1016523
06:00+6всв51092100 1.1 1016572
09:00+7всв51195100 3.3 1016609
12:00+8всв5993100 0.6 1016673
15:00+9всв4690100 0.6 1016649
18:00+9всв4690100 0.0 1015480
21:00+8всв3694100 0.1 1016274